Location: South Tamworth Observatory
(43.8246°N, 71.3026°W)
Time: 03:03:55
(UTC-04:00)

Amateur Radio Satellites - All Passes

Search period start: 03 September 2014 02:33
Search period end: 04 September 2014 02:33
Location: South Tamworth Observatory, 43.8246°N, 71.3026°W

Satellite Date Start Highest point End Downlink Frequencies (MHz)
Time Altitude Azimuth
Oscar 10/S400 03 Sep 02:38:17 03:46:23 37° 228° (SW) 08:28:30 145.825 - 145.975 CW/USB, Beacon 145.810 USB
Oscar 16 03 Sep 02:41:46 02:46:59 75° 286° (WNW) 02:52:09 437.025 USB, Beacon 2401.1428
ITAMSAT 1 03 Sep 02:46:29 02:51:34 53° 100° (E) 02:56:38 435.822 SSB
Uribyol 2 03 Sep 02:55:29 03:00:41 68° 102° (ESE) 03:05:52 436.500 FM
TMSAT-1 03 Sep 03:14:02 03:18:49 33° 96° (E) 03:23:33 436.925 FM
AO-27 03 Sep 03:16:26 03:21:39 83° 285° (WNW) 03:26:51 436.795 MHz FM
Sapphire 03 Sep 03:23:48 03:24:51 11° 259° (W) 03:25:54 437.095 MHz 1200 baud AX-25 AFSK
OPAL 03 Sep 03:41:23 03:46:10 43° 66° (ENE) 03:51:02 ?
KITSAT 1 03 Sep 03:43:43 03:47:48 14° 359° (N) 03:51:52 435.175 FM
AO-Echo 03 Sep 03:45:32 03:49:51 37° 291° (WNW) 03:54:11 ?
Oscar 19 03 Sep 03:46:24 03:50:22 23° 297° (WNW) 03:54:19 437.125 CW, 437.150 USB
JAS-1B 03 Sep 03:49:40 03:56:14 59° 291° (WNW) 04:01:57 435.800 - 435.900 CW/SSB
SO-50 03 Sep 03:51:27 03:55:46 45° 311° (NW) 04:00:13 436.795 FM
UOSAT-12 03 Sep 03:52:26 03:55:44 20° 111° (ESE) 03:59:05 437.025 FM, 437.400 FM
Gurwin Techsat 1B 03 Sep 04:04:21 04:09:38 67° 287° (WNW) 04:14:53 435.225 FM
Oscar 16 03 Sep 04:23:54 04:25:26 11° 305° (NW) 04:26:57 437.025 USB, Beacon 2401.1428
ITAMSAT 1 03 Sep 04:26:47 04:30:42 22° 298° (WNW) 04:34:36 435.822 SSB
AO-7 03 Sep 04:31:43 04:39:25 40° 98° (E) 04:47:02 29.400 - 29.500 MHz
Uribyol 2 03 Sep 04:36:14 04:39:37 18° 300° (WNW) 04:43:01 436.500 FM
Uosat F 03 Sep 04:38:50 04:43:29 37° 98° (E) 04:48:07 435.120 FM
TMSAT-1 03 Sep 04:53:58 04:58:42 34° 293° (WNW) 05:03:25 436.925 FM
AO-27 03 Sep 04:58:15 05:00:21 13° 304° (WNW) 05:02:26 436.795 MHz FM
OPAL 03 Sep 05:21:02 05:25:12 25° 264° (W) 05:29:27 ?
UOSAT-12 03 Sep 05:30:56 05:35:29 55° 309° (NW) 05:40:08 437.025 FM, 437.400 FM
STRAND 1 03 Sep 05:32:08 05:36:01 23° 63° (ENE) 05:39:54 ?
JAS-2 03 Sep 05:33:34 05:36:53 16° 91° (E) 05:40:20 435.800 - 435.900 CW/SSB, 435.910 FM
SO-50 03 Sep 05:36:24 05:37:33 11° 333° (NNW) 05:38:43 436.795 FM
KITSAT 1 03 Sep 05:40:36 05:46:49 23° 30° (NNE) 05:53:00 435.175 FM
JAS-1B 03 Sep 05:43:48 05:45:09 11° 315° (NW) 05:46:29 435.800 - 435.900 CW/SSB
Saudisat 1A 03 Sep 05:44:02 05:48:07 35° 47° (NE) 05:52:11 436.775 MHz
Gurwin Techsat 1B 03 Sep 05:47:55 05:48:36 10° 306° (NW) 05:49:16 435.225 FM
Uosat F 03 Sep 06:17:54 06:22:08 28° 295° (WNW) 06:26:20 435.120 FM
AO-7 03 Sep 06:24:27 06:32:20 50° 298° (WNW) 06:40:11 29.400 - 29.500 MHz
Hamsat 03 Sep 06:36:18 06:40:38 64° 101° (E) 06:44:54 145.90 MHz
RS-15 03 Sep 06:50:14 07:00:46 52° 113° (ESE) 07:11:08 29.354 - 29.394 USB, Beacon 29.352 USB
STRAND 1 03 Sep 07:09:57 07:14:52 50° 260° (W) 07:19:50 ?
UOSAT-12 03 Sep 07:14:37 07:16:41 13° 330° (NNW) 07:18:47 437.025 FM, 437.400 FM
JAS-2 03 Sep 07:17:10 07:22:25 67° 287° (WNW) 07:28:07 435.800 - 435.900 CW/SSB, 435.910 FM
Saudisat 1A 03 Sep 07:23:47 07:27:37 29° 245° (WSW) 07:31:25 436.775 MHz
KITSAT 1 03 Sep 07:35:42 07:43:48 70° 54° (NE) 07:51:49 435.175 FM
SO-67 03 Sep 08:06:07 08:09:35 75° 284° (WNW) 08:13:01 435.3500 MHz FM
Hamsat 03 Sep 08:13:51 08:16:04 14° 298° (WNW) 08:18:16 145.90 MHz
AO-7 03 Sep 08:19:55 08:23:10 13° 320° (NW) 08:26:25 29.400 - 29.500 MHz
ISS 03 Sep 09:00:53 09:03:52 31° 139° (SE) 09:06:52 145.800 FM
RS-15 03 Sep 09:02:29 09:13:09 53° 317° (NW) 09:23:49 29.354 - 29.394 USB, Beacon 29.352 USB
KITSAT 1 03 Sep 09:31:58 09:38:32 28° 254° (WSW) 09:45:04 435.175 FM
HO-68 03 Sep 09:44:24 09:51:30 62° 103° (ESE) 09:58:34 435.675 MHz FM
UKube-1 03 Sep 10:15:38 10:19:59 70° 103° (ESE) 10:24:18 145.840 MHz, 145.915 MHz
Oscar 11 03 Sep 10:17:45 10:22:02 50° 100° (E) 10:26:15 145.825 FM, Beacon 2401.500 USB
ISS 03 Sep 10:37:21 10:40:32 42° 336° (NNW) 10:43:44 145.800 FM
SO-50 03 Sep 10:41:16 10:45:39 35° 46° (NE) 10:50:05 436.795 FM
FUNcube-1 03 Sep 10:53:49 10:58:17 51° 99° (E) 11:02:46 145.950 - 145.970 MHz USB
MaSat-1 03 Sep 11:05:00 11:06:28 11° 98° (E) 11:07:57 437.345 MHz
RS-15 03 Sep 11:20:06 11:28:48 26° 349° (NNW) 11:37:35 29.354 - 29.394 USB, Beacon 29.352 USB
HO-68 03 Sep 11:32:48 11:38:45 29° 302° (WNW) 11:44:41 435.675 MHz FM
Oscar 19 03 Sep 11:48:57 11:51:06 13° 57° (ENE) 11:53:14 437.125 CW, 437.150 USB
UKube-1 03 Sep 11:53:37 11:55:38 13° 300° (WNW) 11:57:38 145.840 MHz, 145.915 MHz
Oscar 11 03 Sep 11:54:58 11:57:49 17° 297° (WNW) 12:00:40 145.825 FM, Beacon 2401.500 USB
ISS 03 Sep 12:15:15 12:17:52 21° 356° (N) 12:20:29 145.800 FM
UOSAT-12 03 Sep 12:19:32 12:23:41 29° 43° (NE) 12:27:47 437.025 FM, 437.400 FM
SO-50 03 Sep 12:21:52 12:26:13 35° 244° (WSW) 12:30:37 436.795 FM
Oscar 16 03 Sep 12:22:06 12:26:15 25° 64° (ENE) 12:30:26 437.025 USB, Beacon 2401.1428
ITAMSAT 1 03 Sep 12:29:53 12:32:19 14° 57° (ENE) 12:34:45 435.822 SSB
FUNcube-1 03 Sep 12:31:09 12:34:18 19° 296° (WNW) 12:37:29 145.950 - 145.970 MHz USB
MaSat-1 03 Sep 12:37:36 12:42:35 84° 116° (ESE) 12:47:46 437.345 MHz
Uribyol 2 03 Sep 12:37:55 12:41:06 17° 59° (ENE) 12:44:18 436.500 FM
JAS-1B 03 Sep 12:43:46 12:51:43 33° 61° (ENE) 12:58:49 435.800 - 435.900 CW/SSB
AO-27 03 Sep 12:58:02 13:02:05 24° 63° (ENE) 13:06:09 436.795 MHz FM
AO-Echo 03 Sep 13:21:13 13:25:47 38° 69° (ENE) 13:30:14 ?
Oscar 19 03 Sep 13:24:26 13:29:37 84° 75° (ENE) 13:34:50 437.125 CW, 437.150 USB
RS-15 03 Sep 13:36:23 13:45:48 31° 24° (NNE) 13:55:25 29.354 - 29.394 USB, Beacon 29.352 USB
AO-7 03 Sep 13:44:22 13:48:51 16° 44° (NE) 13:53:20 29.400 - 29.500 MHz
Gurwin Techsat 1B 03 Sep 13:47:53 13:52:27 31° 65° (ENE) 13:57:02 435.225 FM
ISS 03 Sep 13:52:22 13:55:19 28° 16° (NNE) 13:58:16 145.800 FM
UOSAT-12 03 Sep 13:59:31 14:03:59 43° 242° (WSW) 14:08:23 437.025 FM, 437.400 FM
Oscar 16 03 Sep 14:00:25 14:05:20 45° 261° (W) 14:10:20 437.025 USB, Beacon 2401.1428
ITAMSAT 1 03 Sep 14:05:53 14:11:03 90° 76° (ENE) 14:16:15 435.822 SSB
Uribyol 2 03 Sep 14:14:52 14:20:00 72° 257° (WSW) 14:25:10 436.500 FM
MaSat-1 03 Sep 14:16:48 14:20:15 18° 315° (NW) 14:23:45 437.345 MHz
JAS-1B 03 Sep 14:32:03 14:41:43 71° 257° (WSW) 14:50:13 435.800 - 435.900 CW/SSB
TMSAT-1 03 Sep 14:36:02 14:41:12 59° 72° (ENE) 14:46:24 436.925 FM
AO-27 03 Sep 14:36:19 14:41:18 48° 260° (W) 14:46:19 436.795 MHz FM
Sapphire 03 Sep 14:42:21 14:42:42 10° 101° (E) 14:43:03 437.095 MHz 1200 baud AX-25 AFSK
AO-Echo 03 Sep 15:00:32 15:04:38 26° 265° (W) 15:08:41 ?
PCSat 03 Sep 15:07:25 15:11:19 21° 106° (ESE) 15:15:13 145.825 MHz
Oscar 19 03 Sep 15:07:30 15:09:37 12° 272° (W) 15:11:44 437.125 CW, 437.150 USB
Gurwin Techsat 1B 03 Sep 15:27:24 15:32:18 38° 263° (W) 15:37:14 435.225 FM
ISS 03 Sep 15:28:58 15:32:17 67° 215° (SW) 15:35:35 145.800 FM
AO-7 03 Sep 15:31:51 15:40:00 61° 65° (ENE) 15:48:09 29.400 - 29.500 MHz
RS-15 03 Sep 15:49:14 16:00:20 75° 53° (NE) 16:11:51 29.354 - 29.394 USB, Beacon 29.352 USB
ITAMSAT 1 03 Sep 15:49:44 15:51:16 11° 272° (W) 15:52:48 435.822 SSB
Uosat F 03 Sep 15:53:19 15:58:14 61° 72° (ENE) 16:03:11 435.120 FM
TMSAT-1 03 Sep 16:17:50 16:21:31 19° 269° (W) 16:25:13 436.925 FM
Sapphire 03 Sep 16:19:46 16:25:09 76° 118° (ESE) 16:30:35 437.095 MHz 1200 baud AX-25 AFSK
JAS-1B 03 Sep 16:28:10 16:33:16 16° 274° (W) 16:38:09 435.800 - 435.900 CW/SSB
PCSat 03 Sep 16:48:53 16:54:14 61° 304° (NW) 16:59:38 145.825 MHz
AO-7 03 Sep 17:25:58 17:33:12 32° 264° (W) 17:40:28 29.400 - 29.500 MHz
OPAL 03 Sep 17:28:17 17:33:32 75° 105° (ESE) 17:38:43 ?
Hamsat 03 Sep 17:30:40 17:34:53 53° 73° (ENE) 17:39:09 145.90 MHz
JAS-2 03 Sep 17:30:45 17:36:32 59° 72° (ENE) 17:41:48 435.800 - 435.900 CW/SSB, 435.910 FM
Uosat F 03 Sep 17:34:15 17:37:26 17° 269° (W) 17:40:38 435.120 FM
RS-15 03 Sep 18:02:26 18:11:46 33° 254° (WSW) 18:21:27 29.354 - 29.394 USB, Beacon 29.352 USB
Sapphire 03 Sep 18:05:05 18:09:11 21° 319° (NW) 18:13:18 437.095 MHz 1200 baud AX-25 AFSK
HO-68 03 Sep 18:32:41 18:34:52 12° 45° (NE) 18:37:02 435.675 MHz FM
PCSat 03 Sep 18:35:59 18:38:48 14° 326° (NW) 18:41:38 145.825 MHz
SO-67 03 Sep 18:40:18 18:43:34 40° 73° (ENE) 18:46:51 435.3500 MHz FM
OPAL 03 Sep 19:08:31 19:11:48 17° 303° (WNW) 19:15:03 ?
Hamsat 03 Sep 19:08:41 19:11:10 15° 270° (W) 19:13:41 145.90 MHz
JAS-2 03 Sep 19:17:50 19:21:57 20° 267° (W) 19:25:52 435.800 - 435.900 CW/SSB, 435.910 FM
STRAND 1 03 Sep 19:18:59 19:23:57 49° 100° (E) 19:28:54 ?
HO-68 03 Sep 20:14:08 20:20:59 53° 66° (ENE) 20:27:52 435.675 MHz FM
SO-67 03 Sep 20:15:22 20:16:49 12° 269° (W) 20:18:17 435.3500 MHz FM
MaSat-1 03 Sep 20:54:27 20:58:25 28° 51° (NE) 21:01:56 437.345 MHz
STRAND 1 03 Sep 20:58:54 21:02:49 23° 297° (WNW) 21:06:44 ?
UKube-1 03 Sep 21:12:16 21:16:35 72° 74° (ENE) 21:20:56 145.840 MHz, 145.915 MHz
Oscar 11 03 Sep 21:13:58 21:18:07 46° 72° (ENE) 21:22:19 145.825 FM, Beacon 2401.500 USB
Saudisat 1A 03 Sep 21:30:47 21:35:03 51° 119° (ESE) 21:39:20 436.775 MHz
FUNcube-1 03 Sep 21:51:44 21:55:45 45° 71° (ENE) 21:59:53 145.950 - 145.970 MHz USB
HO-68 03 Sep 22:02:44 22:08:57 32° 265° (W) 22:15:13 435.675 MHz FM
KITSAT 1 03 Sep 22:05:42 22:13:01 40° 110° (ESE) 22:20:21 435.175 FM
MaSat-1 03 Sep 22:31:29 22:35:24 31° 253° (WSW) 22:38:49 437.345 MHz
Oscar 11 03 Sep 22:51:42 22:54:34 17° 268° (W) 22:57:26 145.825 FM, Beacon 2401.500 USB
UKube-1 03 Sep 22:52:06 22:53:17 11° 271° (W) 22:54:27 145.840 MHz, 145.915 MHz
Saudisat 1A 03 Sep 23:11:20 23:14:54 23° 318° (NW) 23:18:28 436.775 MHz
Sapphire 03 Sep 23:24:07 23:27:37 17° 38° (NE) 23:31:07 437.095 MHz 1200 baud AX-25 AFSK
FUNcube-1 03 Sep 23:29:43 23:32:26 17° 269° (W) 23:35:11 145.950 - 145.970 MHz USB
PCSat 03 Sep 23:52:36 23:57:09 26° 45° (NE) 00:01:40 145.825 MHz
KITSAT 1 04 Sep 00:00:19 00:08:12 54° 310° (NW) 00:16:08 435.175 FM
Sapphire 04 Sep 01:06:29 01:11:57 80° 58° (ENE) 01:17:22 437.095 MHz 1200 baud AX-25 AFSK
Oscar 19 04 Sep 01:35:15 01:39:39 27° 94° (E) 01:43:59 437.125 CW, 437.150 USB
PCSat 04 Sep 01:35:36 01:40:55 57° 244° (WSW) 01:46:12 145.825 MHz
KITSAT 1 04 Sep 02:00:04 02:05:40 20° 336° (NNW) 02:11:16 435.175 FM
Oscar 16 04 Sep 02:10:27 02:15:37 58° 101° (E) 02:20:42 437.025 USB, Beacon 2401.1428
ITAMSAT 1 04 Sep 02:17:50 02:22:19 29° 95° (E) 02:26:48 435.822 SSB
JAS-1B 04 Sep 02:18:36 02:24:09 30° 92° (E) 02:29:10 435.800 - 435.900 CW/SSB
